This is the latest recevied weather packets stored in our database for station/object N4DBJ. If no packets are shown the sender has not sent any weather packets the latest 10 day(s).
| Time | Temp. | Humidity | Pressure | Rain* | Wind** | Luminosity | Snow |
|---|---|---|---|---|---|---|---|
| 1777593555 | 14.44° C | 65% | 1012.4 hPa | 0 mm | - | 25 W/m² | - |
| 1777593254 | 15° C | 65% | 1012.4 hPa | 0 mm | - | 23 W/m² | - |
| 1777592949 | 15° C | 61% | 1012 hPa | 0 mm | - | 29 W/m² | - |
| 1777592644 | 15.56° C | 60% | 1012.3 hPa | 0 mm | - | 38 W/m² | - |
| 1777592340 | 16.11° C | 60% | 1012.5 hPa | 0 mm | - | 53 W/m² | - |
| 1777592036 | 16.67° C | 59% | 1012.3 hPa | 0 mm | - | 46 W/m² | - |
| 1777591733 | 16.67° C | 56% | 1012.3 hPa | 0 mm | - | 63 W/m² | - |
| 1777591428 | 16.11° C | 61% | 1012.3 hPa | 0 mm | - | 81 W/m² | - |
| 1777591125 | 16.67° C | 57% | 1012.5 hPa | 0 mm | - | 52 W/m² | - |
| 1777590820 | 16.67° C | 58% | 1012.3 hPa | 0 mm | - | 104 W/m² | - |
| 1777590516 | 16.67° C | 56% | 1012.3 hPa | 0 mm | - | 66 W/m² | - |
| 1777590213 | 17.78° C | 54% | 1011.9 hPa | 0 mm | - | 51 W/m² | - |
| 1777589910 | 17.78° C | 57% | 1012.2 hPa | 0 mm | - | 192 W/m² | - |
| 1777589605 | 18.33° C | 50% | 1012.4 hPa | 0 mm | - | 89 W/m² | - |
| 1777589303 | 18.89° C | 49% | 1012.4 hPa | 0 mm | - | 134 W/m² | - |
| 1777588995 | 17.78° C | 49% | 1012.4 hPa | 0 mm | - | 106 W/m² | - |
| 1777588690 | 17.78° C | 50% | 1012.3 hPa | 0 mm | - | 77 W/m² | - |
| 1777588386 | 18.33° C | 45% | 1012.6 hPa | 0 mm | - | 83 W/m² | - |
| 1777588082 | 18.33° C | 45% | 1012.5 hPa | 0 mm | - | 275 W/m² | - |
| 1777587778 | 18.33° C | 44% | 1012.6 hPa | 0 mm | - | 105 W/m² | - |
| 1777587477 | 18.33° C | 44% | 1012.5 hPa | 0 mm | - | 179 W/m² | - |
| 1777587175 | 18.89° C | 46% | 1012.4 hPa | 0 mm | - | 163 W/m² | - |
| 1777586869 | 19.44° C | 43% | 1012.7 hPa | 0 mm | - | 308 W/m² | - |
| 1777586566 | 18.89° C | 45% | 1012.6 hPa | 0 mm | - | 285 W/m² | - |
| 1777586261 | 18.33° C | 44% | 1012.4 hPa | 0 mm | - | 356 W/m² | - |
* Rain latest hour (hover to see other rain measurements)
** Current wind speed in m/s (hover to see current wind gust speed)